FENGYUN 2G DEB, 43646

Orbit data source: Space-Track

FENGYUN 2G DEB, 43646 is space debris in GEO originally from a launch on Wed, 31 Dec 2014 UTC launched from the Xichang Space Center, China (XSC). Debris objects in space refer to the collection of defunct objects orbiting the Earth. Examples of debris include non-operational satellites, rocket bodies, and fragments generated from explosions, collisions, or faulty payload assembly.

Not visible in the next 10 days
Identifier
43646, 2014-090D
Orbit
GEO
Country
Flag of CNCN / PRC
Related business
Manufacturer
SISE
Mission
Spacecraft
Bus & Motor
Unknown
Mass
Unknown
Launch date (UTC)
2014-12-31 (11 years ago)
Launch vehicle
Unknown
Launch site
Xichang Space Center, China (XSC)
Object type
Payload
Rocket body
Debris
Shape & HBR
Cyl, 0.3 m
Radar Cross Section
0.137 m², Medium (>0.1 m² and < 1m²)

Expand to show TLE details & history
Last TLE update: 6 days ago

TLE from 6 days ago
0 FENGYUN 2G DEB
1 43646U 14090D   26167.27524378 -.00000014  00000-0  00000-0 0  9993
2 43646   7.5371  68.2836 0218261 291.7011  65.8330  1.00219676 41699
Epoch: 2026-06-16T06:36Z
TLE epoch observation values (Epoch: 2026-06-16T06:36:21.062Z)
Latitude
0.00001°
Longitude
64.48669°
Altitude
35,442.564 km
Speed
3.1 km/s
True Right ascension
04h 32m 29s
True Declination
0° 00' 00"
Sunlit
Object was in daylight at epoch
Visualization orbit readout
Latitude
Unknown
Longitude
Unknown
Altitude
Unknown
Speed
Unknown
Apparent Right ascension
Unknown
Apparent Declination
Unknown
Sunlit
N/A
Visualization observer readout
Local Sidereal Time
02:17:38
Azimuth
Unknown
Elevation
Unknown
Doppler factor
Unknown
Orbital elements
Apogee altitude
36,722.887 km
Perigee altitude
34,881.62 km
Semi-major axis
42,180.39 km
Eccentricity
0.02183
Inclination
7.5371°
RAAN
68.2836°
Arg. of periapsis
291.7011°
True anomaly
68.14002°
Mean anomaly
65.833°
Eccentric anomaly
66.98399°
Mean motion
0.25054 °/min
Orbital period
1,436.9 mins
BSTAR
0
Loading maneuver chart data...
Computing Atmospheric mass density...
Loading historical data...
Loading historical data...
Loading historical data...
Loading historical data...
Loading historical data...
Loading historical data...
Loading historical data...
Other satellites on launch #90 in the year 2014 (2014-12-31 UTC)

Documentation

Showing up to 5 results
|